Preview of NWS' New Version of Forecast
This preview is not operational and should not be used for support decisions.

Regional Weather Roundup (RWR)

Issued by National Weather Service (NWS)

                            
000
ASUS44 KJAN 182110
RWRMS 

MISSISSIPPI HOURLY WEATHER ROUNDUP
NATIONAL WEATHER SERVICE JACKSON MS
400 PM CDT MON MAR 18 2019

NOTE: "FAIR: INDICATES FEW OR NO CLOUDS BELOW 12,000 FEET WITH NO
SIGNIFICANT WEATHER AND/OR OBSTRUCTIONS TO VISIBILITY.

MSZ001>002-007>008-010>013-018>021-025>028-034>036-182200-
NORTHWEST MISSISSIPPI
  
CITY           SKY/WX    TMP DP  RH WIND       PRES   REMARKS
BATESVILLE     FAIR      61  32  33 VRB6      30.31F                  
CLARKSDALE     SUNNY     63  32  31 N14       30.32F                  
CLEVELAND      FAIR      63  32  31 N13       30.30F                  
GREENWOOD      FAIR      64  28  25 NE10      30.30F                  
GREENVILLE     FAIR      63  34  33 NE13      30.29F                  
OLIVE BRANCH   MOSUNNY   57  27  30 NW6       30.33F                  
OXFORD         FAIR      59  28  31 N12       30.33F                  
TUNICA           N/A     55  32  41 N7        30.35F                  
WINONA         FAIR      61  32  33 NE9       30.29F                  
$$

MSZ003>006-009-014>017-022>024-029>033-037>039-182200-
NORTHEAST MISSISSIPPI
  
CITY           SKY/WX    TMP DP  RH WIND       PRES   REMARKS
ABERDEEN       FAIR      59  36  41 N8G17     30.31F                  
COLUMBUS AFB   FAIR      63  27  25 N12G21    30.29S                  
CORINTH        FAIR      57  25  28 NW8G15    30.32F                  
GOLDN TRIANGLE FAIR      63  34  33 N10       30.30S                  
STARKVILLE     FAIR      61  32  33 N9G16     30.31S                  
TUPELO         FAIR      59  27  29 N13       30.31F                  
$$

MSZ040-058-182200-
CENTRAL MISSISSIPPI
  
CITY           SKY/WX    TMP DP  RH WIND       PRES   REMARKS
JACKSON INTL   PTSUNNY   66  34  30 NE6G18    30.26F                  
JACKSON HAWKNS PTSUNNY   67  36  31 NE10      30.26F                  
MADISON        FAIR      63  34  34 NE6       30.26F                  
MERIDIAN KEY   FAIR      66  31  27 N13       30.27F                  
MERIDIAN NAS   CLOUDY    65  31  28 N10       30.28F                  
RAYMOND        FAIR      68  36  30 N8        30.26F                  
VICKSBURG VKS  CLEAR     66  36  32 N12       30.27F                  
$$

MSZ059>079-182200-
SOUTH MISSISSIPPI
  
CITY           SKY/WX    TMP DP  RH WIND       PRES   REMARKS
HATTIESBURG    FAIR      65  34  31 NE8       30.26F                  
LAUREL         CLEAR     65  35  33 N9G18     30.25F                  
MCCOMB         FAIR      67  30  25 NE8       30.25F                  
NATCHEZ        FAIR      66  35  31 N13       30.26F                  
PINE BELT      FAIR      65  36  34 NE9       30.26F                  
$$

MSZ080>082-182200-
COASTAL MISSISSIPPI
  
CITY           SKY/WX    TMP DP  RH WIND       PRES   REMARKS
BAY ST LOUIS   PTSUNNY   63  36  36 NE9       30.24F                  
BILOXI         FAIR      63  38  39 NE9       30.23S                  
PASCAGOULA     FAIR      66  33  29 N10       30.23S                  
GULFPORT       FAIR      64  36  35 NE12      30.23S                  
$$

LAZ007>009-015>016-023>026-182200-
NORTHEAST LOUISIANA
  
CITY           SKY/WX    TMP DP  RH WIND       PRES   REMARKS
BASTROP        FAIR      67  40  36 NE9       30.28F                  
TALLULAH/VBURG FAIR      66  40  38 N8        30.28F                  
VIDALIA        FAIR      67  35  30 N9        30.25F                  
$$